Location: Damada
(14.7329°N, 3.1761°W)
Time: 14:35:07
(UTC+00:00)

CZ-2D R/B - Pass Details

Date: 18 February 2020
Orbit: 521 x 539 km, 97.4° (Epoch: 27 March)

Event Time Altitude Azimuth Distance (km) Brightness Sun altitude
Rises 19:02:31 0° 163° (SSE) 2,669 6.7 -11.5°
Reaches altitude 10° 19:04:37 10° 160° (SSE) 1,782 5.8 -12.0°
Maximum altitude 19:08:26 65° 79° (ENE) 592 3.2 -12.9°
Drops below altitude 10° 19:12:16 10° 356° (N) 1,792 5.9 -13.8°
Sets 19:14:24 0° 354° (N) 2,684 6.8 -14.3°
